Regional Weather Roundup
Issued by NWS

Home | Current Version | Previous Version | Graphics & Text | Print | Product List | Glossary On
Versions: 1 2 3 4 5 6 7 8 9 10 11 12 13 14 15 16 17 18 19 20 21 22 23 24 25 26 27
000
ASUS45 KTFX 201010
RWRMT
MONTANA REGIONAL WEATHER ROUNDUP
NATIONAL WEATHER SERVICE GREAT FALLS MT
400 AM MDT SUN AUG 20 2017

NOTE: "FAIR" INDICATES FEW OR NO CLOUDS BELOW 12000 FEET WITH NO
SIGNIFICANT WEATHER AND/OR OBSTRUCTIONS TO VISIBILITY.

MTZ001>007-043-201100-
WEST OF THE DIVIDE

CITY           SKY/WX    TMP DP  RH WIND       PRES   REMARKS
KALISPELL        N/A     43  38  82 CALM      30.05S
MISSOULA         N/A     50  39  66 CALM      30.10S
BUTTE          CLEAR     44  33  65 SE6       30.16F
MULLAN PASS      N/A     50  30  46 VRB3      30.18F
ANACONDA         N/A     46  34  61 S3        30.15S
DEER LODGE       N/A     48  36  61 CALM      30.16S
EUREKA           N/A     48  34  57 MISG      30.04S
HAMILTON         N/A     48  39  71 SE5       30.12R
LIBBY            N/A     46  36  66 CALM      30.05R
PLAINS           N/A     47  35  63 CALM      30.08R
RONAN            N/A     45  38  76 MISG      30.11R
$$

MTZ008-052>055-201100-
SOUTHWEST MONTANA

CITY           SKY/WX    TMP DP  RH WIND       PRES   REMARKS
BOZEMAN        CLEAR     53  39  59 CALM      30.09R
DILLON         CLEAR     50  32  50 SE6       30.13R
W YELLOWSTONE  CLEAR     39  34  81 CALM      30.17R
ENNIS          MOCLDY    50  36  57 S3        30.17R
THREE FORKS      N/A     52  37  56 CALM      30.07S
TWIN BRIDGES     N/A     53  31  43 CALM      30.09R
$$

MTZ009-010-012-014-046-048-049-054-201100-
EAST SLOPES AND CENTRAL MONTANA

CITY           SKY/WX    TMP DP  RH WIND       PRES   REMARKS
CUT BANK         N/A     49  35  58 SE5       30.04F
GREAT FALLS    CLEAR     49  37  63 SW9       30.04S
MALMSTROM AFB  CLEAR     49  39  67 SW7       30.04R
HELENA         CLEAR     58  38  47 CALM      30.08S
AUGUSTA          N/A     47  36  64 NW5       30.07S
BOWMANS CRNR     N/A     49  35  58 W6        30.06R
CHOTEAU          N/A     46  37  71 SW7       30.06F
CONRAD           N/A     41  36  82 NE3       30.05F
FAIRFIELD        N/A     45  34  66 NW8       30.04F
POWER            N/A     47  33  58 NW6       30.03F
RAYNESFORD       N/A     54  37  53 S5        30.05S
ULM              N/A     46  36  68 CALM      30.05R
$$

MTZ011-013-016-021-045-047-050-051-201100-
NORTH CENTRAL MONTANA

CITY           SKY/WX    TMP DP  RH WIND       PRES   REMARKS
HAVRE          CLOUDY    55  30  38 E10       30.01F
LEWISTOWN      CLEAR     53  34  48 E8        30.08R
N BAR RANCH      N/A     46  34  61 W8        30.13S
CHINOOK          N/A     48  32  53 NE3       30.03F
DENTON           N/A     52  35  53 SW6       30.01F
GEYSER           N/A     52  36  54 W6        30.05F
GRASS RANGE      N/A     48  34  59 W5        30.06R
JUDITH GAP       N/A     49  37  61 S18       30.10S
WINIFRED       MOCLDY    55  32  42 E12G22    30.05R
$$

MTZ017>020-022>027-061-062-201100-
NORTHEAST MONTANA

CITY           SKY/WX    TMP DP  RH WIND       PRES   REMARKS
GLASGOW        CLEAR     52  31  44 N3        30.03S
JORDAN           N/A     53  33  46 CALM      30.05S
SIDNEY         MOCLDY    49  38  65 W3        30.05R
WOLF POINT     CLEAR     48  36  63 S7        30.04R
MALTA          CLOUDY    50  37  62 SE3       30.03F
PLENTYWOOD       N/A     46  36  66 CALM      30.04R
POPLAR           N/A     50  36  57 S6        30.04R
SCOBEY           N/A     38  26  62 CALM      30.04R
$$

MTZ028>42-056>058-201100-
SOUTHCENTRAL AND SOUTHEAST MONTANA

CITY           SKY/WX    TMP DP  RH WIND       PRES   REMARKS
BAKER          PTCLDY    58  38  47 SE6       30.05S
BILLINGS       PTCLDY    60  37  42 N9        30.04S
LIVINGSTON     CLEAR     57  37  47 E8        30.08S
MILES CITY     CLOUDY    62  35  36 NE15      30.03F
BIG TIMBER     MOCLDY    54  39  58 NE6       30.11F
EKALAKA          N/A     60  38  44 E8        30.04R
HARLOWTON        N/A     55  41  59 MISG      30.10S
LAUREL           N/A     58  35  42 MISG      30.04S
$$

REGIONAL REPORTS...DAKOTAS

CITY           SKY/WX    TMP DP  RH WIND       PRES   REMARKS
WILLISTON      CLEAR     46  40  79 SW3       30.03R
MINOT          CLOUDY    57  41  55 W12       29.97R
DICKINSON      CLOUDY    50  44  80 NW7       30.03R
BEACH          CLOUDY    50  43  76 CALM      30.08F
CROSBY           N/A     50  36  57 NW8       30.01R
TIOGA            N/A     48  41  76 W3        30.04R
BISMARCK       MOCLDY    60  49  66 NW6       29.99R
GRAND FORKS    CLEAR     62  53  72 NW10      29.81R
FARGO          CLEAR     64  56  75 NW12      29.84R
BUFFALO SD       N/A     60  45  57 NE13      29.97F
RAPID CITY     CLEAR     61  49  64 N13       30.02R
$$

REGIONAL REPORTS...WYOMING/IDAHO/WASHINGTON

CITY           SKY/WX    TMP DP  RH WIND       PRES   REMARKS
GILLETTE       PTCLDY    54  41  61 CALM      30.04R
SHERIDAN       MOCLDY    50  41  71 CALM      30.05R
BUFFALO WY     PTCLDY    60  36  40 CALM      30.09S
CODY           CLEAR     57  38  48 N8        30.09S
YELLOWSTONE LA   N/A     37  33  85 NW3       30.24R
IDAHO FALLS    CLOUDY    58  40  51 SW8       30.07R
SALMON         CLEAR     51  38  60 CALM      30.12R
BOISE            N/A     60  41  49 CALM      30.01S
SPOKANE          N/A     60  40  47 SW3       30.06R
$$

REGIONAL REPORTS...ALBERTA

CITY           SKY/WX    TMP DP  RH WIND       PRES   REMARKS
EDMONTON       CLOUDY    50  41  71 W7        29.95S
CALGARY        PTCLDY    48  36  61 CALM      30.01S
LETHBRIDGE     CLEAR     41  34  75 SW7G25    30.00S
MEDICINE HAT   CLOUDY    52  46  82 VRB2      30.01S
$$

REGIONAL REPORTS...SASKATCHEWAN

CITY           SKY/WX    TMP DP  RH WIND       PRES   REMARKS
SWIFT CURRENT  CLEAR     43  34  70 SW12      30.03S
REGINA         CLEAR     37  34  87 S5        29.99R
SASKATOON      CLEAR     41  39  93 SW8       29.95S
$$




USA.gov is the U.S. government's official web portal to all federal, state and local government web resources and services.